Total_Precipitation_Accumulation
1.93 1.75 1.70 1.70 1.63 1.53 1.40 1.28 1.21 1.18 1.13 1.06 0.93 0.79 0.74 0.70 0.62 0.60 0.69 0.81 1.00 1.37 1.71 1.91 2.01 2.02 2.02 2.01 1.81 1.68 1.53 1.41 1.31 1.29 1.26 1.25 1.20 1.21 1.30 1.40 1.38 1.33 1.28
2.45 2.21 2.06 1.97 1.86 1.76 1.65 1.52 1.42 1.41 1.37 1.27 1.15 0.97 0.86 0.83 0.80 0.77 0.77 0.81 0.86 1.03 1.46 1.81 2.06 2.23 2.33 2.38 2.22 1.88 1.68 1.51 1.40 1.37 1.31 1.29 1.26 1.25 1.26 1.27 1.36 1.40 1.39
2.62 2.54 2.41 2.30 2.21 2.12 1.99 1.84 1.73 1.65 1.59 1.49 1.34 1.20 1.07 0.96 0.93 0.95 0.94 0.91 0.91 0.94 1.22 1.65 1.90 2.15 2.37 2.57 2.61 2.40 2.06 1.76 1.62 1.51 1.43 1.32 1.25 1.28 1.31 1.29 1.30 1.34 1.39
2.67 2.63 2.49 2.33 2.33 2.40 2.36 2.17 1.99 1.87 1.72 1.63 1.51 1.35 1.18 1.09 1.02 1.01 1.04 1.08 1.07 0.96 1.03 1.36 1.66 1.93 2.15 2.46 2.64 2.76 2.67 2.26 1.97 1.80 1.64 1.45 1.33 1.29 1.29 1.30 1.29 1.27 1.30
2.84 2.79 2.67 2.58 2.57 2.48 2.43 2.37 2.20 1.99 1.87 1.77 1.68 1.55 1.37 1.23 1.12 1.08 1.05 1.05 1.11 1.06 0.98 1.10 1.30 1.53 1.81 2.12 2.41 2.72 2.92 2.73 2.38 2.11 1.89 1.71 1.57 1.46 1.42 1.43 1.44 1.38 1.37
2.95 2.88 2.71 2.70 2.83 2.76 2.62 2.43 2.38 2.22 2.00 1.92 1.89 1.80 1.64 1.48 1.36 1.23 1.15 1.12 1.11 1.10 1.09 1.02 1.05 1.14 1.38 1.76 2.13 2.46 2.70 2.82 2.77 2.55 2.28 2.03 1.85 1.76 1.73 1.72 1.67 1.62 1.60
3.01 3.05 2.88 2.72 2.75 2.72 2.65 2.58 2.50 2.52 2.43 2.26 2.31 2.25 2.08 1.85 1.66 1.48 1.35 1.31 1.25 1.21 1.20 1.19 1.14 1.07 1.12 1.37 1.71 2.02 2.30 2.56 2.67 2.63 2.54 2.41 2.23 2.09 2.03 2.00 1.92 1.85 1.84
2.88 2.92 2.96 2.93 2.82 2.74 2.72 2.77 2.75 2.76 2.76 2.69 2.67 2.68 2.58 2.42 2.00 1.62 1.49 1.41 1.33 1.31 1.29 1.25 1.22 1.15 1.08 1.14 1.30 1.52 1.81 2.22 2.53 2.68 2.63 2.52 2.44 2.43 2.42 2.38 2.29 2.19 2.10
2.88 2.80 2.80 2.91 2.92 2.83 2.70 2.70 2.74 2.74 2.78 2.76 2.72 2.87 2.65 2.29 1.92 1.73 1.50 1.38 1.35 1.37 1.34 1.36 1.38 1.32 1.23 1.17 1.16 1.27 1.40 1.70 2.15 2.55 2.78 2.80 2.75 2.73 2.73 2.80 2.81 2.70 2.53
2.92 2.85 2.79 2.83 2.87 2.82 2.68 2.63 2.62 2.66 2.72 2.74 2.72 2.62 2.43 2.04 1.86 1.82 1.66 1.47 1.40 1.40 1.44 1.43 1.45 1.48 1.46 1.40 1.33 1.29 1.30 1.39 1.83 2.30 2.74 2.96 3.06 3.10 3.09 3.07 3.08 3.09 2.94
2.87 2.85 2.79 2.78 2.75 2.69 2.66 2.73 2.68 2.69 2.72 2.69 2.63 2.53 2.48 2.19 1.89 1.84 1.76 1.62 1.58 1.48 1.51 1.57 1.53 1.51 1.51 1.49 1.38 1.37 1.40 1.41 1.73 2.23 2.79 3.07 3.17 3.30 3.42 3.42 3.36 3.31 3.24
2.82 2.76 2.73 2.65 2.60 2.62 2.66 2.72 2.77 2.74 2.74 2.76 2.68 2.54 2.51 2.45 2.18 2.04 1.94 1.73 1.73 1.65 1.54 1.58 1.60 1.55 1.52 1.48 1.42 1.51 1.43 1.43 1.56 1.91 2.53 3.02 3.10 3.17 3.40 3.61 3.61 3.46 3.35
2.56 2.50 2.54 2.55 2.48 2.38 2.44 2.60 2.76 2.77 2.71 2.72 2.69 2.63 2.54 2.43 2.24 2.19 2.20 2.05 1.95 1.87 1.82 1.75 1.65 1.58 1.55 1.55 1.56 1.63 1.46 1.49 1.57 1.76 2.20 2.70 2.85 2.81 2.92 3.25 3.61 3.72 3.69
2.49 2.47 2.46 2.45 2.46 2.43 2.36 2.41 2.55 2.67 2.70 2.65 2.53 2.48 2.46 2.39 2.38 2.36 2.34 2.40 2.39 2.16 1.98 1.85 1.72 1.67 1.64 1.63 1.76 1.89 1.61 1.73 1.75 1.83 2.07 2.36 2.52 2.49 2.49 2.62 2.95 3.30 3.48
2.40 2.41 2.42 2.42 2.45 2.48 2.42 2.41 2.46 2.47 2.53 2.57 2.54 2.45 2.37 2.25 2.27 2.29 2.26 2.35 2.57 2.51 2.13 1.76 1.71 1.78 1.84 1.83 1.99 1.87 1.73 1.98 1.97 1.92 1.99 2.10 2.18 2.24 2.27 2.32 2.40 2.56 2.76
2.25 2.23 2.21 2.21 2.22 2.30 2.35 2.36 2.35 2.30 2.31 2.34 2.39 2.44 2.41 2.29 2.27 2.34 2.41 2.42 2.45 2.52 2.28 1.71 1.56 1.64 1.87 2.02 2.24 2.03 1.93 2.22 2.13 2.01 1.97 1.95 1.95 1.95 2.02 2.09 2.15 2.25 2.33
2.12 2.09 2.02 2.01 1.99 2.01 2.10 2.20 2.19 2.20 2.24 2.21 2.23 2.29 2.31 2.29 2.32 2.36 2.47 2.53 2.55 2.61 2.55 1.99 1.71 1.69 1.83 1.94 2.04 1.99 1.97 2.02 2.00 2.12 1.96 1.83 1.79 1.77 1.79 1.84 1.92 2.00 2.07
1.94 2.00 1.95 1.92 1.89 1.85 1.88 1.95 2.00 2.03 2.08 2.10 2.11 2.16 2.20 2.23 2.29 2.33 2.46 2.50 2.45 2.40 2.42 2.25 1.93 1.79 1.75 1.73 1.78 1.84 1.85 1.82 1.80 2.02 1.96 1.83 1.72 1.70 1.72 1.75 1.79 1.85 1.93
1.73 1.78 1.84 1.81 1.80 1.79 1.84 1.85 1.84 1.86 1.89 1.91 1.94 2.00 1.99 2.06 2.14 2.16 2.25 2.34 2.32 2.28 2.26 2.17 1.91 1.71 1.68 1.66 1.76 1.83 1.82 1.75 1.67 1.81 1.84 1.83 1.79 1.74 1.73 1.68 1.69 1.72 1.74
1.53 1.57 1.65 1.66 1.64 1.66 1.74 1.79 1.85 1.86 1.83 1.82 1.84 1.89 1.93 1.96 1.97 2.02 2.13 2.19 2.22 2.28 2.29 2.26 2.09 1.83 1.68 1.63 1.69 1.79 1.85 1.77 1.66 1.60 1.78 1.78 1.81 1.80 1.75 1.62 1.53 1.52 1.51
1.35 1.33 1.37 1.44 1.51 1.56 1.64 1.70 1.79 1.85 1.85 1.84 1.83 1.87 1.93 2.12 2.16 2.14 2.17 2.14 2.18 2.30 2.32 2.30 2.14 1.95 1.75 1.66 1.67 1.58 1.62 1.69 1.72 1.65 1.67 1.64 1.63 1.61 1.63 1.67 1.63 1.56 1.55
1.28 1.30 1.32 1.30 1.36 1.45 1.78 1.87 1.83 1.85 1.89 1.87 1.83 1.80 1.86 2.03 2.02 2.07 2.12 2.14 2.22 2.36 2.41 2.32 2.09 1.81 1.51 1.31 1.33 1.47 1.60 1.78 1.87 1.62 1.61 1.69 1.61 1.68 1.58 1.55 1.71 1.64 1.60
1.23 1.32 1.37 1.38 1.38 1.51 1.82 1.88 1.99 1.92 1.89 1.85 1.79 1.73 1.69 1.66 1.75 1.59 1.72 1.93 2.01 2.04 2.02 1.98 1.96 1.59 1.35 1.21 1.35 1.57 1.62 1.64 1.51 1.36 1.57 1.87 1.76 1.74 1.56 1.57 1.76 1.65 1.63
1.30 1.43 1.51 1.55 1.59 1.67 1.81 1.77 1.88 1.74 1.69 1.64 1.58 1.56 1.53 1.46 1.46 1.53 1.59 1.72 1.61 1.55 1.55 1.46 1.41 1.30 1.27 1.32 1.50 1.73 1.83 1.87 1.68 1.53 1.62 1.93 1.77 1.70 1.54 1.52 1.73 1.68 1.67
1.57 1.59 1.62 1.58 1.57 1.62 1.69 1.66 1.69 1.58 1.57 1.47 1.36 1.35 1.38 1.33 1.50 1.74 1.79 1.71 1.53 1.45 1.52 1.59 1.59 1.58 1.71 1.84 1.92 2.16 2.36 2.49 2.23 1.78 1.55 1.61 1.55 1.52 1.53 1.54 1.63 1.77 1.74
1.50 1.52 1.54 1.53 1.47 1.43 1.51 1.52 1.54 1.47 1.43 1.30 1.24 1.23 1.34 1.34 1.57 1.81 1.79 1.73 1.59 1.33 1.32 1.46 1.53 1.54 1.55 1.66 1.91 1.94 2.06 2.42 2.23 1.83 1.33 1.31 1.38 1.54 1.92 1.64 1.46 1.51 1.68